Regional Weather Roundup
Issued by NWS Sioux Falls, SD

Home | Current Version | Previous Version | Graphics & Text | Print | Product List | Glossary Off
Versions: 1 2 3 4 5 6 7 8 9 10 11 12 13 14 15 16 17 18 19 20 21 22 23 24 25 26 27 28 29 30 31 32 33 34 35 36 37 38 39 40 41 42 43 44 45 46 47 48 49 50

000
ASUS43 KFSD 252110
RWRFSD

WEATHER ROUNDUP FOR SE SOUTH DAKOTA/SW MINNESOTA/NW IOWA
NATIONAL WEATHER SERVICE SIOUX FALLS SD
400 PM CDT WED MAY 25 2016

NOTE: "FAIR" INDICATES FEW OR NO CLOUDS BELOW 12,000 FEET WITH NO
SIGNIFICANT WEATHER AND OR OBSTRUCTIONS TO VISIBILITY.


SDZ038>040-050-052>070-252200-
SOUTHEAST SOUTH DAKOTA

CITY           SKY/WX    TMP DP  RH WIND       PRES   REMARKS
BROOKINGS      PTSUNNY   74  60  61 SW13      29.80F
CHAMBERLAIN    MOSUNNY   77  62  59 CALM      29.79F
HURON          MOSUNNY   75  59  57 SW5       29.77F
MADISON        FAIR      73  64  73 SW13      29.81F
MITCHELL       PTSUNNY   74  59  59 SW6G16    29.79F
SIOUX FALLS    MOSUNNY   77  60  55 W9        29.80F
YANKTON        MOSUNNY   81  57  44 SW13G18   29.78S
$$

MNZ071-072-080-081-089-090-097-098-252200-
SOUTHWEST MINNESOTA

CITY           SKY/WX    TMP DP  RH WIND       PRES   REMARKS
FAIRMONT       CLOUDY    77  54  44 SW15      29.80F
JACKSON        SUNNY     79  54  41 SW15      29.82F
LUVERNE        MOSUNNY   77  59  53 W9        29.82S
MARSHALL       PTSUNNY   77  60  55 SW15G22   29.79S
MONTEVIDEO     PTSUNNY   81  57  44 W12G21    29.78S
PIPESTONE      MOSUNNY   75  61  60 W12       29.82S
REDWOOD FALLS  MOSUNNY   80  61  52 S16       29.77F
TRACY          MOSUNNY   78  61  55 SW14G22   29.80F
WINDOM         SUNNY     79  59  50 CALM      29.81S
WORTHINGTON    PTSUNNY   76  62  62 SW13      29.83S
$$

IAZ001>003-012>014-020>022-031-032-NEZ013-014-SDZ071-252200-
NORTHWEST IOWA

CITY           SKY/WX    TMP DP  RH WIND       PRES   REMARKS
CHEROKEE       MOSUNNY   78  62  59 SW13      29.83S
DENISON        SUNNY     79  63  57 SW14G26   29.82S
ESTHERVILLE    CLOUDY    81  58  45 SW13G23   29.81F
LE MARS        SUNNY     81  63  54 SW10G20   29.81F
ORANGE CITY    SUNNY     79  63  57 SW12      29.82S
SHELDON        PTSUNNY   79  59  50 SW10G16   29.81S
SIOUX CITY     MOSUNNY   83  63  50 W17       29.80F
SPENCER        SUNNY     80  59  48 SW12      29.82S
STORM LAKE       N/A     81  57  44 W18       29.83F
$$

ABBREVIATIONS USED IN REMARKS
   TC - TEMPERATURE IN CELSIUS
  WCI - WIND CHILL INDEX
   HX - HEAT INDEX
  VSB - VISIBILITY





USA.gov is the U.S. government's official web portal to all federal, state and local government web resources and services.